{"data":{"norad_id":53481,"epoch":"2026-09-20T22:00:03.000096Z","epoch_age_seconds":42772,"freshness":"FRESH","line1":"1 53481U 22099S   26263.91670139  .00039884  00000+0  96776-3 0  9997","line2":"2 53481  97.5130  31.1213 0001700 101.9412 171.6524 15.40931459  5771","mean_motion":15.40931459,"eccentricity":0.00017,"inclination_deg":97.513,"raan_deg":31.1213,"arg_perigee_deg":101.9412,"mean_anomaly_deg":171.6524,"bstar":0.00096776,"rev_number":577,"period_min":93.449970898414,"perigee_km":442.19931584518,"apogee_km":444.51862447503,"semimajor_km":6821.4959701601,"source":"CELESTRAK","updated_at":"2026-09-21T09:00:32.890504Z"}}